Time,TemperatureF,DewpointF,PressureIn,WindDirection,WindDirectionDegrees,WindSpeedMPH,WindSpeedGustMPH,Humidity,HourlyPrecipIn,Conditions,Clouds,dailyrainin,SoftwareType,DateUTC
2013-08-03 00:06:00,45.1,39.0,30.08,SSE,166,0.0,0.0,80,0.00,,,0.00,weatherlink.com 1.10,2013-08-03 07:06:00,
2013-08-03 00:21:00,44.6,39.0,30.09,SSE,166,0.0,0.0,82,0.00,,,0.00,weatherlink.com 1.10,2013-08-03 07:21:00,
2013-08-03 00:37:00,44.1,39.0,30.09,SSE,166,0.0,0.0,82,0.00,,,0.00,weatherlink.com 1.10,2013-08-03 07:37:00,
2013-08-03 00:51:00,43.8,40.0,30.09,SSE,166,0.0,0.0,86,0.00,,,0.00,weatherlink.com 1.10,2013-08-03 07:51:00,
2013-08-03 01:06:00,43.2,39.0,30.08,SSE,166,0.0,1.0,84,0.00,,,0.00,weatherlink.com 1.10,2013-08-03 08:06:00,
2013-08-03 01:22:00,42.5,38.0,30.08,SSE,166,0.0,0.0,85,0.00,,,0.00,weatherlink.com 1.10,2013-08-03 08:22:00,
2013-08-03 01:36:00,41.6,37.0,30.08,SSE,166,0.0,0.0,85,0.00,,,0.00,weatherlink.com 1.10,2013-08-03 08:36:00,
2013-08-03 01:52:00,41.2,37.0,30.08,SSE,166,0.0,0.0,86,0.00,,,0.00,weatherlink.com 1.10,2013-08-03 08:52:00,
2013-08-03 02:07:00,40.8,37.0,30.08,SSE,165,0.0,0.0,86,0.00,,,0.00,weatherlink.com 1.10,2013-08-03 09:07:00,
2013-08-03 02:22:00,40.6,38.0,30.08,SSE,166,0.0,0.0,91,0.00,,,0.00,weatherlink.com 1.10,2013-08-03 09:22:00,
2013-08-03 02:37:00,41.2,39.0,30.09,SSE,167,0.0,1.0,92,0.00,,,0.00,weatherlink.com 1.10,2013-08-03 09:37:00,
2013-08-03 02:52:00,41.7,40.0,30.09,SSE,167,0.0,1.0,93,0.00,,,0.00,weatherlink.com 1.10,2013-08-03 09:52:00,
2013-08-03 03:07:00,41.6,40.0,30.09,SSE,166,0.0,1.0,92,0.00,,,0.00,weatherlink.com 1.10,2013-08-03 10:07:00,
2013-08-03 03:22:00,40.1,37.0,30.09,SSE,165,0.0,0.0,89,0.00,,,0.00,weatherlink.com 1.10,2013-08-03 10:22:00,
2013-08-03 03:37:00,39.4,37.0,30.09,SSE,166,0.0,0.0,89,0.00,,,0.00,weatherlink.com 1.10,2013-08-03 10:37:00,
2013-08-03 03:52:00,39.3,37.0,30.09,SSE,166,0.0,0.0,91,0.00,,,0.00,weatherlink.com 1.10,2013-08-03 10:52:00,
2013-08-03 04:07:00,39.0,36.0,30.09,SSE,166,0.0,0.0,90,0.00,,,0.00,weatherlink.com 1.10,2013-08-03 11:07:00,
2013-08-03 04:22:00,38.5,36.0,30.09,SSE,166,0.0,0.0,90,0.00,,,0.00,weatherlink.com 1.10,2013-08-03 11:22:00,
2013-08-03 04:37:00,38.2,36.0,30.09,SSE,166,0.0,0.0,90,0.00,,,0.00,weatherlink.com 1.10,2013-08-03 11:37:00,
2013-08-03 04:52:00,37.8,35.0,30.10,SSE,166,0.0,0.0,90,0.00,,,0.00,weatherlink.com 1.10,2013-08-03 11:52:00,
2013-08-03 05:07:00,37.5,35.0,30.09,South,172,0.0,1.0,91,0.00,,,0.00,weatherlink.com 1.10,2013-08-03 12:07:00,
2013-08-03 05:22:00,36.8,34.0,30.10,South,172,0.0,0.0,90,0.00,,,0.00,weatherlink.com 1.10,2013-08-03 12:22:00,
2013-08-03 05:37:00,36.5,34.0,30.10,South,172,0.0,0.0,91,0.00,,,0.00,weatherlink.com 1.10,2013-08-03 12:37:00,
2013-08-03 05:52:00,36.5,34.0,30.10,South,172,0.0,0.0,92,0.00,,,0.00,weatherlink.com 1.10,2013-08-03 12:52:00,
2013-08-03 06:07:00,37.4,36.0,30.10,SSE,158,0.0,1.0,95,0.00,,,0.00,weatherlink.com 1.10,2013-08-03 13:07:00,
2013-08-03 06:22:00,37.5,36.0,30.11,SSE,158,0.0,1.0,95,0.00,,,0.00,weatherlink.com 1.10,2013-08-03 13:22:00,
2013-08-03 06:37:00,38.4,37.0,30.11,SSE,167,0.0,2.0,96,0.00,,,0.00,weatherlink.com 1.10,2013-08-03 13:37:00,
2013-08-03 06:52:00,39.3,38.0,30.11,SSE,153,0.0,0.0,96,0.00,,,0.00,weatherlink.com 1.10,2013-08-03 13:52:00,
2013-08-03 07:07:00,39.8,39.0,30.11,South,169,0.0,2.0,96,0.00,,,0.00,weatherlink.com 1.10,2013-08-03 14:07:00,
2013-08-03 07:22:00,41.6,40.0,30.11,ESE,106,0.0,2.0,95,0.00,,,0.00,weatherlink.com 1.10,2013-08-03 14:22:00,
2013-08-03 07:37:00,43.7,41.0,30.11,SE,131,0.0,1.0,90,0.00,,,0.00,weatherlink.com 1.10,2013-08-03 14:37:00,
2013-08-03 07:52:00,44.5,42.0,30.11,ESE,113,0.0,3.0,90,0.00,,,0.00,weatherlink.com 1.10,2013-08-03 14:52:00,
2013-08-03 08:07:00,44.9,43.0,30.11,ENE,64,0.0,3.0,91,0.00,,,0.00,weatherlink.com 1.10,2013-08-03 15:07:00,
2013-08-03 08:22:00,46.0,44.0,30.11,ESE,104,1.0,2.0,92,0.00,,,0.00,weatherlink.com 1.10,2013-08-03 15:22:00,
2013-08-03 08:37:00,48.7,45.0,30.11,ESE,111,0.0,3.0,88,0.00,,,0.00,weatherlink.com 1.10,2013-08-03 15:37:00,
2013-08-03 08:53:00,50.4,46.0,30.11,SE,139,0.0,3.0,85,0.00,,,0.00,weatherlink.com 1.10,2013-08-03 15:53:00,
2013-08-03 09:08:00,52.6,47.0,30.11,NE,54,0.0,2.0,81,0.00,,,0.00,weatherlink.com 1.10,2013-08-03 16:08:00,
2013-08-03 09:23:00,54.1,47.0,30.11,ENE,57,2.0,2.0,78,0.00,,,0.00,weatherlink.com 1.10,2013-08-03 16:23:00,
2013-08-03 09:38:00,55.5,48.0,30.11,NNE,33,2.0,2.0,77,0.00,,,0.00,weatherlink.com 1.10,2013-08-03 16:38:00,
2013-08-03 09:53:00,57.4,50.0,30.10,ESE,113,0.0,3.0,75,0.00,,,0.00,weatherlink.com 1.10,2013-08-03 16:53:00,
2013-08-03 10:08:00,59.1,49.0,30.10,NE,50,1.0,2.0,70,0.00,,,0.00,weatherlink.com 1.10,2013-08-03 17:08:00,
2013-08-03 10:23:00,60.7,50.0,30.09,East,82,1.0,3.0,69,0.00,,,0.00,weatherlink.com 1.10,2013-08-03 17:23:00,
2013-08-03 10:38:00,63.2,51.0,30.09,East,99,0.0,2.0,64,0.00,,,0.00,weatherlink.com 1.10,2013-08-03 17:38:00,
2013-08-03 10:53:00,65.9,51.0,30.09,SE,145,0.0,1.0,59,0.00,,,0.00,weatherlink.com 1.10,2013-08-03 17:53:00,
2013-08-03 11:08:00,68.5,47.0,30.08,East,101,0.0,2.0,46,0.00,,,0.00,weatherlink.com 1.10,2013-08-03 18:08:00,
2013-08-03 11:23:00,70.1,45.0,30.08,SE,130,1.0,3.0,40,0.00,,,0.00,weatherlink.com 1.10,2013-08-03 18:23:00,
2013-08-03 11:38:00,71.0,42.0,30.07,SSW,194,1.0,3.0,35,0.00,,,0.00,weatherlink.com 1.10,2013-08-03 18:38:00,
2013-08-03 11:53:00,71.9,42.0,30.07,ESE,110,1.0,3.0,34,0.00,,,0.00,weatherlink.com 1.10,2013-08-03 18:53:00,
2013-08-03 12:08:00,72.2,36.0,30.07,East,98,1.0,5.0,27,0.00,,,0.00,weatherlink.com 1.10,2013-08-03 19:08:00,
2013-08-03 12:23:00,73.4,37.0,30.07,ESE,108,0.0,5.0,27,0.00,,,0.00,weatherlink.com 1.10,2013-08-03 19:23:00,
2013-08-03 12:38:00,73.2,32.0,30.07,ESE,110,1.0,4.0,22,0.00,,,0.00,weatherlink.com 1.10,2013-08-03 19:38:00,
2013-08-03 12:53:00,73.0,34.0,30.06,ESE,108,0.0,5.0,24,0.00,,,0.00,weatherlink.com 1.10,2013-08-03 19:53:00,
2013-08-03 13:09:00,73.4,38.0,30.06,South,170,0.0,4.0,28,0.00,,,0.00,weatherlink.com 1.10,2013-08-03 20:09:00,
2013-08-03 13:24:00,74.9,38.0,30.06,SE,139,1.0,5.0,26,0.00,,,0.00,weatherlink.com 1.10,2013-08-03 20:24:00,
2013-08-03 13:38:00,74.7,37.0,30.05,SSW,210,2.0,4.0,25,0.00,,,0.00,weatherlink.com 1.10,2013-08-03 20:38:00,
2013-08-03 13:53:00,75.3,39.0,30.05,SSE,163,1.0,4.0,27,0.00,,,0.00,weatherlink.com 1.10,2013-08-03 20:53:00,
2013-08-03 14:08:00,75.9,35.0,30.05,ESE,123,0.0,6.0,23,0.00,,,0.00,weatherlink.com 1.10,2013-08-03 21:08:00,
2013-08-03 14:24:00,76.1,37.0,30.05,South,181,1.0,5.0,24,0.00,,,0.00,weatherlink.com 1.10,2013-08-03 21:24:00,
2013-08-03 14:39:00,77.3,40.0,30.04,South,188,1.0,5.0,26,0.00,,,0.00,weatherlink.com 1.10,2013-08-03 21:39:00,
2013-08-03 14:54:00,77.5,40.0,30.04,SSE,156,0.0,7.0,26,0.00,,,0.00,weatherlink.com 1.10,2013-08-03 21:54:00,
2013-08-03 15:09:00,78.2,39.0,30.03,SE,139,0.0,4.0,24,0.00,,,0.00,weatherlink.com 1.10,2013-08-03 22:09:00,
2013-08-03 15:24:00,78.4,36.0,30.03,South,173,0.0,4.0,22,0.00,,,0.00,weatherlink.com 1.10,2013-08-03 22:24:00,
2013-08-03 15:39:00,80.4,38.0,30.03,SSE,153,0.0,3.0,22,0.00,,,0.00,weatherlink.com 1.10,2013-08-03 22:39:00,
2013-08-03 15:54:00,81.9,38.0,30.02,South,170,0.0,3.0,21,0.00,,,0.00,weatherlink.com 1.10,2013-08-03 22:54:00,
2013-08-03 16:09:00,81.6,37.0,30.02,ESE,108,0.0,6.0,20,0.00,,,0.00,weatherlink.com 1.10,2013-08-03 23:09:00,
2013-08-03 16:25:00,79.9,34.0,30.02,East,90,0.0,3.0,19,0.00,,,0.00,weatherlink.com 1.10,2013-08-03 23:25:00,
2013-08-03 16:39:00,81.9,36.0,30.01,South,172,0.0,1.0,19,0.00,,,0.00,weatherlink.com 1.10,2013-08-03 23:39:00,
2013-08-03 16:54:00,80.5,33.0,30.01,ESE,113,2.0,4.0,18,0.00,,,0.00,weatherlink.com 1.10,2013-08-03 23:54:00,
2013-08-03 17:09:00,79.3,38.0,30.01,SE,136,0.0,2.0,23,0.00,,,0.00,weatherlink.com 1.10,2013-08-04 00:09:00,
2013-08-03 17:24:00,78.3,36.0,30.01,ESE,120,1.0,1.0,22,0.00,,,0.00,weatherlink.com 1.10,2013-08-04 00:24:00,
2013-08-03 17:39:00,77.9,35.0,30.01,SSE,167,0.0,1.0,21,0.00,,,0.00,weatherlink.com 1.10,2013-08-04 00:39:00,
2013-08-03 17:54:00,78.0,32.0,30.00,SE,130,0.0,4.0,19,0.00,,,0.00,weatherlink.com 1.10,2013-08-04 00:54:00,
2013-08-03 18:09:00,77.7,35.0,30.00,SW,219,1.0,2.0,21,0.00,,,0.00,weatherlink.com 1.10,2013-08-04 01:09:00,
2013-08-03 18:24:00,77.3,37.0,30.00,SE,139,1.0,4.0,23,0.00,,,0.00,weatherlink.com 1.10,2013-08-04 01:24:00,
2013-08-03 18:39:00,77.6,37.0,30.00,SSE,158,0.0,1.0,23,0.00,,,0.00,weatherlink.com 1.10,2013-08-04 01:39:00,
2013-08-03 18:54:00,77.3,38.0,30.00,South,173,0.0,2.0,24,0.00,,,0.00,weatherlink.com 1.10,2013-08-04 01:54:00,
2013-08-03 19:10:00,75.9,39.0,30.00,South,180,0.0,5.0,26,0.00,,,0.00,weatherlink.com 1.10,2013-08-04 02:10:00,
2013-08-03 19:24:00,74.6,38.0,30.01,WSW,246,3.0,3.0,27,0.00,,,0.00,weatherlink.com 1.10,2013-08-04 02:24:00,
2013-08-03 19:39:00,73.6,38.0,30.01,SSE,165,0.0,1.0,28,0.00,,,0.00,weatherlink.com 1.10,2013-08-04 02:39:00,
2013-08-03 19:54:00,72.3,39.0,30.01,South,179,0.0,2.0,30,0.00,,,0.00,weatherlink.com 1.10,2013-08-04 02:54:00,
2013-08-03 20:09:00,71.1,39.0,30.01,South,175,0.0,1.0,31,0.00,,,0.00,weatherlink.com 1.10,2013-08-04 03:09:00,
2013-08-03 20:24:00,69.5,42.0,30.02,South,174,0.0,1.0,37,0.00,,,0.00,weatherlink.com 1.10,2013-08-04 03:24:00,
2013-08-03 20:39:00,67.3,43.0,30.02,South,175,0.0,0.0,42,0.00,,,0.00,weatherlink.com 1.10,2013-08-04 03:39:00,
2013-08-03 20:54:00,65.1,42.0,30.02,South,174,0.0,0.0,43,0.00,,,0.00,weatherlink.com 1.10,2013-08-04 03:54:00,
2013-08-03 21:09:00,63.5,42.0,30.03,South,174,0.0,0.0,45,0.00,,,0.00,weatherlink.com 1.10,2013-08-04 04:09:00,
2013-08-03 21:24:00,62.0,42.0,30.04,South,174,0.0,0.0,48,0.00,,,0.00,weatherlink.com 1.10,2013-08-04 04:24:00,
2013-08-03 21:39:00,60.8,41.0,30.04,South,174,0.0,0.0,49,0.00,,,0.00,weatherlink.com 1.10,2013-08-04 04:39:00,
2013-08-03 21:54:00,59.8,43.0,30.04,South,174,0.0,0.0,55,0.00,,,0.00,weatherlink.com 1.10,2013-08-04 04:54:00,
2013-08-03 22:09:00,58.8,42.0,30.05,South,175,0.0,0.0,54,0.00,,,0.00,weatherlink.com 1.10,2013-08-04 05:09:00,
2013-08-03 22:24:00,57.6,41.0,30.05,South,174,0.0,1.0,55,0.00,,,0.00,weatherlink.com 1.10,2013-08-04 05:24:00,
2013-08-03 22:39:00,57.8,43.0,30.05,South,174,0.0,1.0,58,0.00,,,0.00,weatherlink.com 1.10,2013-08-04 05:39:00,
2013-08-03 22:54:00,58.6,44.0,30.05,South,181,0.0,1.0,59,0.00,,,0.00,weatherlink.com 1.10,2013-08-04 05:54:00,
2013-08-03 23:09:00,59.6,45.0,30.05,South,185,1.0,2.0,59,0.00,,,0.00,weatherlink.com 1.10,2013-08-04 06:09:00,
2013-08-03 23:24:00,60.2,45.0,30.05,South,179,0.0,2.0,58,0.00,,,0.00,weatherlink.com 1.10,2013-08-04 06:24:00,
2013-08-03 23:39:00,60.5,45.0,30.06,South,181,0.0,1.0,58,0.00,,,0.00,weatherlink.com 1.10,2013-08-04 06:39:00,
2013-08-03 23:54:00,60.9,45.0,30.06,South,187,0.0,3.0,56,0.00,,,0.00,weatherlink.com 1.10,2013-08-04 06:54:00,